Location: Il Ritiro
(43.4167°N, 13.1333°E)
Time: 08:11:55
(UTC+00:00)

Cosmos 1844 Rocket - Pass Details

Date: 05 July 2020
Orbit: 826 x 843 km, 71.0° (Epoch: 05 August)

Event Time Altitude Azimuth Distance (km) Brightness Sun altitude
Rises 19:23:19 0° 340° (NNW) 3,376 7.0 -5.6°
Reaches altitude 10° 19:25:56 10° 349° (NNW) 2,438 6.0 -6.0°
Maximum altitude 19:31:08 39° 57° (ENE) 1,232 3.5 -6.7°
Drops below altitude 10° 19:36:18 10° 125° (SE) 2,424 4.4 -7.4°
Enters shadow 19:36:34 - 127° (SE) 2,515 4.5 -7.5°
